map of FNI home
FNI - Airport
Location
City:  Nīmes, Languedoc-Roussillon, France
Name:NAS Nīmes-Garons
ICAO:LFTW
IATA:FNI

Details
Type:Airport (Aerodrome, Airfield)
Use:Public/Civil
Latitude:43°45'27"N (43.757500)
Longitude:4°24'59"E (4.416389)
Elevation:309 ft (94 m)
Variation:1.26°E (WMM2015 magnetic declination)
0.12° annual change
Runways:1
Longest:8015 × 148 ft (2443 × 45 m), paved

Time
Time Zone:UTC+1 (DST+2)
Local Time:

Weather
METAR:LFTW 220130Z AUTO 31005KT 280V340 CAVOK 09/05 Q1021
TAF:LFTW 211900Z 2119/2215 CNL

Related Locations
Nearby:
Farthest:CHT: 12397 mi / 19951 km
Waitangi [Tuuta], CIT, NZ

Find:

   beyond  
but within

Other Information
Maps:
NOTAMs:
Links:
Sources:

  
flag of France
flag of Languedoc-Roussillon
  

Sectional Chart

Flight Planning
at skyvector.com

Satellite Image

Google Maps Satellite view

 

Copyright © 2004-2017 Karl L. Swartz. All rights reserved.
The Great Circle Mapper name and logo are trademarks of the Great Circle Mapper.
All other trademarks mentioned herein belong to their respective owners.
Please see credits for attibutions and further copyright information.

  Follow gcmap on Facebook Follow gcmap on Twitter Follow gcmap on Google+ GCmap on LinkedIn

hCard Microformat

Geo Microformat